Location: Unspecified
(0.0000°N, 0.0000°E)
Time: 01:06:38
(UTC+00:00)

Vanguard 1 Rocket - All Passes

Search period start: 04 December 2023 00:00
Search period end: 14 December 2023 00:00
Orbit: 656 x 4218 km, 34.3° (Epoch: 03 December)

Date Brightness Start Highest point End Pass type
(mag) Time Alt. Az. Time Alt. Az. Time Alt. Az.
04 Dec - 00:39:57 10° SW 01:03:50 70° SE 01:27:57 10° ENE visible
04 Dec - 03:12:02 10° WSW 03:37:28 56° NW 03:56:18 10° NE visible
04 Dec - 05:56:40 10° WNW 06:10:11 19° NNW 06:19:56 10° N daylight
04 Dec - 13:36:26 10° NW 13:40:55 73° NE 13:45:45 10° ESE daylight
04 Dec - 16:04:15 10° SW 16:06:52 13° SSW 16:09:59 10° S daylight
04 Dec - 21:02:14 10° SSW 21:12:53 19° SSE 21:27:14 10° ESE visible
04 Dec - 23:27:02 10° SW 23:47:35 51° SE 00:12:10 10° ENE visible
05 Dec - 01:56:01 10° WSW 02:21:39 77° NW 02:43:49 10° NE visible
05 Dec - 04:34:05 10° W 04:54:53 32° NW 05:09:31 10° NNE visible
05 Dec - 12:25:27 10° NNW 12:29:42 26° NNE 12:33:26 10° E daylight
05 Dec - 14:50:59 10° W 14:54:39 24° SSW 14:59:09 10° SSE daylight
05 Dec - 19:53:21 10° S 19:56:54 11° SSE 20:00:57 10° SE visible
05 Dec - 22:15:06 10° SSW 22:31:35 36° SE 22:53:52 10° E visible
06 Dec - 00:41:44 10° SW 01:05:27 81° SE 01:30:07 10° NE visible
06 Dec - 03:14:48 10° WSW 03:39:16 47° NW 03:58:01 10° NNE visible
06 Dec - 06:02:05 10° WNW 06:13:13 16° NNW 06:21:40 10° N daylight
06 Dec - 11:15:06 10° N 11:17:45 13° NNE 11:20:03 10° NE daylight
06 Dec - 13:38:47 10° WNW 13:43:15 60° SW 13:47:58 10° SE daylight
06 Dec - 21:04:05 10° SSW 21:15:52 23° SSE 21:32:19 10° ESE visible
06 Dec - 23:28:45 10° SW 23:49:21 61° SE 00:14:48 10° ENE visible
07 Dec - 01:58:13 10° WSW 02:23:15 66° NW 02:45:36 10° NE visible
07 Dec - 04:38:18 10° W 04:57:22 27° NNW 05:11:15 10° NNE visible
07 Dec - 12:27:06 10° NW 12:32:08 47° NE 12:36:23 10° ESE daylight
07 Dec - 14:54:49 10° WSW 14:57:16 14° SSW 15:00:02 10° S daylight
07 Dec - 19:54:48 10° S 20:00:21 13° SSE 20:07:09 10° SE visible
07 Dec - 22:16:48 10° SSW 22:33:41 42° SE 22:57:18 10° ENE visible
08 Dec - 00:43:39 10° SW 01:07:02 87° NW 01:32:04 10° NE visible
08 Dec - 03:17:58 10° W 03:41:17 40° NW 03:59:42 10° NNE visible
08 Dec - 06:07:42 10° NW 06:16:36 14° NNW 06:23:39 10° N daylight
08 Dec - 11:15:41 10° NNW 11:20:29 22° NNE 11:24:10 10° ENE daylight
08 Dec - 13:41:30 10° W 13:45:37 32° SW 13:49:49 10° SSE daylight
08 Dec - 21:05:47 10° SSW 21:18:27 27° SE 21:36:54 10° E visible
08 Dec - 23:30:32 10° SW 23:50:59 71° SE 00:17:06 10° ENE visible
09 Dec - 02:00:43 10° WSW 02:24:59 56° NW 02:47:16 10° NE visible
09 Dec - 04:43:00 10° WNW 05:00:13 22° NNW 05:13:06 10° NNE visible
09 Dec - 10:04:20 10° N 10:07:57 13° NNE 10:10:54 10° NE daylight
09 Dec - 12:29:07 10° NW 12:34:30 88° NE 12:38:54 10° SE daylight
09 Dec - 19:56:09 10° S 20:03:28 15° SSE 20:13:07 10° ESE visible
09 Dec - 22:18:31 10° SSW 22:35:31 51° SE 23:00:14 10° ENE visible
10 Dec - 00:45:45 10° WSW 01:08:37 76° NW 01:33:49 10° NE visible
10 Dec - 03:21:36 10° W 03:43:36 34° NNW 04:01:25 10° NNE visible
10 Dec - 06:12:52 10° NW 06:20:14 13° NNW 06:26:15 10° N daylight
10 Dec - 08:52:51 10° N 08:54:30 10° N 08:55:59 10° NNE daylight
10 Dec - 11:16:59 10° NW 11:23:06 36° NNE 11:27:24 10° E daylight
10 Dec - 13:44:46 10° W 13:47:59 18° SW 13:51:12 10° SSE daylight
10 Dec - 21:07:26 10° SSW 21:20:40 33° SE 21:40:52 10° E visible
10 Dec - 23:32:25 10° SW 23:52:34 82° SE 00:19:06 10° NE visible
11 Dec - 02:03:33 10° WSW 02:26:56 48° NW 02:48:53 10° NE visible
11 Dec - 04:48:05 10° WNW 05:03:27 19° NNW 05:15:12 10° NNE visible
11 Dec - 07:37:58 10° N 07:39:54 10° N 07:41:41 10° N daylight
11 Dec - 10:04:46 10° NNW 10:10:52 21° NNE 10:15:09 10° ENE daylight
11 Dec - 12:31:27 10° WNW 12:36:46 51° SW 12:41:03 10° SE daylight
11 Dec - 19:57:31 10° S 20:06:13 19° SE 20:18:31 10° ESE visible
11 Dec - 22:20:17 10° SW 22:37:12 60° SE 23:02:44 10° ENE visible
12 Dec - 00:48:05 10° WSW 01:10:20 65° NW 01:35:26 10° NE visible
12 Dec - 03:25:42 10° W 03:46:17 29° NNW 04:03:13 10° NNE visible
12 Dec - 06:16:54 10° NNW 06:24:01 13° N 06:29:49 10° NNE daylight
12 Dec - 08:51:58 10° NNW 08:57:43 15° NNE 09:02:00 10° NE daylight
12 Dec - 11:18:39 10° NW 11:25:35 62° NE 11:30:09 10° ESE daylight
12 Dec - 13:49:40 10° SW 13:50:23 10° SSW 13:51:06 10° SSW daylight
12 Dec - 21:09:06 10° SSW 21:22:37 40° SE 21:44:16 10° ENE visible
12 Dec - 23:34:28 10° SW 23:54:10 86° NW 00:20:52 10° NE visible
13 Dec - 02:06:46 10° W 02:29:08 40° NNW 02:50:29 10° NNE visible
13 Dec - 04:53:12 10° NW 05:07:01 18° NNW 05:17:43 10° NNE visible
13 Dec - 07:37:33 10° NNW 07:43:27 13° N 07:48:06 10° NNE daylight
13 Dec - 10:05:50 10° NW 10:13:40 32° NNE 10:18:35 10° E daylight
13 Dec - 12:34:12 10° W 12:38:58 29° SW 12:42:52 10° SSE daylight
13 Dec - 19:58:58 10° S 20:08:37 24° SE 20:23:14 10° E visible
13 Dec - 22:22:09 10° SW 22:38:47 71° SE 23:04:54 10° ENE visible
